EA5BZ Weather Reports


Display with metric or nautical units.
time (UTC)temp
F
wind
direction
speed
MPH
gust
MPH
rain 1hr
in
rain 24hr
in
rain mn
in
humidity
%
barometer
mb
20260504081516 63 203 2.0 5.0 0.00 0.06 0.06 93 1014.1
20260504081016 63 203 2.0 7.0 0.00 0.06 0.06 92 1014.1
20260504080516 63 225 2.0 7.0 0.00 0.06 0.06 92 1014.1
20260504050516 62 0.0 0.0 0.00 0.05 0.05 92 1013.4
20260504050016 62 0.0 2.0 0.00 0.05 0.05 92 1013.4
20260504045536 62 0.0 1.0 0.00 0.05 0.05 92 1013.4
20260504045016 62 0.0 0.0 0.00 0.05 0.05 92 1013.3
20260504044516 62 0.0 1.0 0.00 0.05 0.05 92 1013.2
20260504044056 62 0.0 0.0 0.00 0.05 0.05 92 1013.3
20260504043516 62 0.0 0.0 0.01 0.05 0.05 92 1013.3
20260504043016 62 0.0 0.0 0.01 0.05 0.05 92 1013.3
20260504042516 62 0.0 0.0 0.01 0.05 0.05 92 1013.3
20260504042016 62 23 1.0 3.0 0.01 0.05 0.05 92 1013.3
20260504041516 62 23 1.0 4.0 0.01 0.05 0.05 92 1013.3
20260504041015 62 23 2.0 4.0 0.01 0.05 0.05 92 1013.3
20260504040516 62 23 2.0 4.0 0.01 0.05 0.05 92 1013.4
20260504040016 62 0.0 4.0 0.01 0.05 0.05 92 1013.4
20260504035535 62 0.0 2.0 0.01 0.05 0.05 92 1013.5
20260504035015 62 23 2.0 8.0 0.01 0.05 0.05 92 1013.4
20260504034516 62 23 3.0 8.0 0.01 0.05 0.05 92 1013.5
20260504034015 62 0 2.0 7.0 0.01 0.05 0.05 92 1013.5
20260504033536 62 0 2.0 5.0 0.00 0.04 0.04 92 1013.6
20260504033015 62 23 1.0 3.0 0.01 0.04 0.04 92 1013.7
20260504032515 62 0 2.0 7.0 0.01 0.04 0.04 92 1013.7
20260504032015 62 0 2.0 6.0 0.02 0.04 0.04 92 1013.7
20260504031515 62 0 2.0 5.0 0.03 0.04 0.04 91 1013.9
20260504031015 62 0 2.0 5.0 0.03 0.04 0.04 92 1013.9
20260504030515 62 0 2.0 7.0 0.03 0.04 0.04 91 1013.9
20260504030015 62 0 2.0 5.0 0.03 0.04 0.04 91 1014.0
20260504025516 62 0 2.0 4.0 0.03 0.04 0.04 91 1014.0
20260504025015 62 23 2.0 5.0 0.04 0.04 0.04 91 1014.1
20260504024515 62 23 2.0 5.0 0.04 0.04 0.04 91 1014.2
20260504024016 62 0.0 0.0 0.04 0.04 0.04 91 1014.2
20260504023515 62 0.0 3.0 0.04 0.04 0.04 91 1014.2
20260504023016 62 0.0 3.0 0.03 0.03 0.03 91 1014.1
20260504022516 62 0.0 2.0 0.03 0.03 0.03 90 1014.1
20260504022016 62 45 1.0 3.0 0.02 0.02 0.02 90 1014.1
20260504021515 62 0.0 2.0 0.01 0.01 0.01 90 1014.1
20260504021016 62 45 1.0 3.0 0.01 0.01 0.01 90 1014.1
20260504020515 62 68 1.0 4.0 0.01 0.01 0.01 90 1014.2
20260504020016 62 0.0 2.0 0.01 0.01 0.01 89 1014.3
20260504015535 62 0.0 2.0 0.01 0.01 0.01 89 1014.3
20260504015015 62 0.0 0.0 0.00 0.00 0.00 89 1014.3
20260504014515 62 0.0 2.0 0.00 0.00 0.00 89 1014.4
20260504014035 63 68 1.0 3.0 0.00 0.00 0.00 88 1014.4
20260504013515 63 0.0 0.0 0.00 0.00 0.00 88 1014.4
20260504013015 63 0.0 0.0 0.00 0.00 0.00 88 1014.5
20260504012515 63 0.0 0.0 0.00 0.00 0.00 88 1014.5
20260504012015 63 0.0 0.0 0.00 0.00 0.00 87 1014.5
20260504011535 63 68 1.0 4.0 0.00 0.00 0.00 86 1014.4
20260504011015 64 68 2.0 4.0 0.00 0.00 0.00 85 1014.5
20260504010515 64 0.0 3.0 0.00 0.00 0.00 85 1014.5
20260504010015 64 0.0 0.0 0.00 0.00 0.00 85 1014.5
20260504005515 64 0.0 0.0 0.00 0.00 0.00 85 1014.4
20260504005035 64 0.0 0.0 0.00 0.00 0.00 84 1014.4
20260504004515 64 0.0 2.0 0.00 0.00 0.00 84 1014.5
20260504004035 64 45 1.0 3.0 0.00 0.00 0.00 84 1014.5
20260504003515 64 0.0 3.0 0.00 0.00 0.00 84 1014.6
20260504003015 64 68 1.0 6.0 0.00 0.00 0.00 84 1014.5
20260504002515 64 68 1.0 4.0 0.00 0.00 0.00 84 1014.5
20260504002015 64 0.0 2.0 0.00 0.00 0.00 83 1014.5
20260504001515 64 68 2.0 5.0 0.00 0.00 0.00 83 1014.4
20260504001015 64 90 2.0 4.0 0.00 0.00 0.00 83 1014.5
20260504000515 64 68 2.0 5.0 0.00 0.00 0.00 83 1014.5
20260504000015 65 68 1.0 5.0 0.00 0.00 0.00 83 1014.4
20260503235515 65 68 2.0 4.0 0.00 0.00 0.00 83 1014.5
20260503235037 65 68 1.0 4.0 0.00 0.00 0.00 83 1014.5
20260503234517 65 0.0 3.0 0.00 0.00 0.00 83 1014.5
20260503234037 65 45 1.0 3.0 0.00 0.00 0.00 84 1014.6
20260503233517 65 45 1.0 4.0 0.00 0.00 0.00 84 1014.6
20260503233037 64 0.0 2.0 0.00 0.00 0.00 84 1014.6
20260503232517 64 45 1.0 5.0 0.00 0.00 0.00 84 1014.8
20260503232017 64 68 1.0 6.0 0.00 0.00 0.00 85 1014.8
20260503231517 64 68 1.0 4.0 0.00 0.00 0.00 85 1014.8
20260503231017 64 45 2.0 6.0 0.00 0.00 0.00 85 1014.9
20260503230517 64 45 1.0 4.0 0.00 0.00 0.00 86 1014.9
20260503230017 64 45 1.0 4.0 0.00 0.00 0.00 86 1014.9
20260503225537 64 45 1.0 4.0 0.00 0.00 0.00 86 1014.9
20260503225017 64 45 1.0 3.0 0.00 0.00 0.00 87 1014.9
20260503224537 64 45 1.0 3.0 0.00 0.00 0.00 87 1014.9
20260503224017 64 0.0 4.0 0.00 0.00 0.00 87 1014.9
20260503223517 64 0.0 2.0 0.00 0.00 0.00 87 1015.0
20260503223017 64 0.0 3.0 0.00 0.00 0.00 87 1015.0
20260503222517 64 45 1.0 5.0 0.00 0.00 0.00 87 1015.0
20260503222017 64 45 1.0 4.0 0.00 0.00 0.00 87 1015.1
20260503221517 64 45 2.0 6.0 0.00 0.00 0.00 87 1015.1
20260503221037 64 23 2.0 5.0 0.00 0.00 0.00 88 1015.2
20260503220517 64 23 1.0 5.0 0.00 0.00 0.00 88 1015.2
20260503220017 64 23 1.0 4.0 0.00 0.00 0.00 88 1015.1
20260503215516 64 45 2.0 6.0 0.00 0.00 0.00 88 1015.2
20260503215016 64 68 2.0 5.0 0.00 0.00 0.00 88 1015.2
20260503214516 64 68 1.0 3.0 0.00 0.00 0.00 88 1015.3
20260503214016 64 90 2.0 4.0 0.00 0.00 0.00 88 1015.3
20260503213516 64 90 1.0 2.0 0.00 0.00 0.00 88 1015.4
20260503213016 64 90 1.0 3.0 0.00 0.00 0.00 88 1015.5
20260503212516 64 0.0 3.0 0.00 0.00 0.00 88 1015.4
20260503212016 64 90 3.0 5.0 0.00 0.00 0.00 88 1015.4
20260503211536 64 90 2.0 5.0 0.00 0.00 0.00 88 1015.4
20260503211036 64 68 2.0 4.0 0.00 0.00 0.00 88 1015.4
20260503210516 64 90 4.0 7.0 0.00 0.00 0.00 88 1015.5
20260503210016 64 90 3.0 6.0 0.00 0.00 0.00 87 1015.5
20260503205516 64 90 2.0 6.0 0.00 0.00 0.00 87 1015.3
20260503205016 64 68 4.0 7.0 0.00 0.00 0.00 87 1015.4
20260503204516 64 68 3.0 5.0 0.00 0.00 0.00 87 1015.3
20260503204016 64 68 3.0 6.0 0.00 0.00 0.00 87 1015.3
20260503203516 64 90 3.0 7.0 0.00 0.00 0.00 87 1015.3
20260503203016 64 90 5.0 9.0 0.00 0.00 0.00 87 1015.3
20260503202516 64 90 6.0 9.0 0.00 0.00 0.00 87 1015.2
20260503202016 64 90 3.0 8.0 0.00 0.00 0.00 87 1015.2
20260503201516 64 90 5.0 9.0 0.00 0.00 0.00 88 1015.1
20260503201016 64 68 6.0 9.0 0.00 0.00 0.00 87 1014.9
20260503200516 64 90 4.0 8.0 0.00 0.00 0.00 87 1014.8
20260503200016 64 90 6.0 10.0 0.00 0.00 0.00 87 1014.7
20260503195516 64 90 7.0 11.0 0.00 0.00 0.00 87 1014.7
20260503195016 64 90 5.0 10.0 0.00 0.00 0.00 87 1014.5
20260503194516 64 90 7.0 10.0 0.00 0.00 0.00 87 1014.3
20260503194016 64 90 7.0 11.0 0.00 0.00 0.00 87 1014.2
20260503193516 64 90 7.0 11.0 0.00 0.00 0.00 86 1014.0
20260503193035 64 68 4.0 9.0 0.00 0.00 0.00 86 1014.0
20260503192516 64 90 5.0 10.0 0.00 0.00 0.00 86 1013.8
20260503192016 64 68 4.0 9.0 0.00 0.00 0.00 86 1013.7
20260503191516 64 68 6.0 11.0 0.00 0.00 0.00 86 1013.6
20260503191016 64 90 5.0 10.0 0.00 0.00 0.00 86 1013.7
20260503190516 64 68 7.0 11.0 0.00 0.00 0.00 86 1013.6
20260503190016 64 68 11.0 15.0 0.00 0.00 0.00 86 1013.4
20260503185516 64 68 11.0 16.0 0.00 0.00 0.00 85 1013.4
20260503185016 64 68 10.0 15.0 0.00 0.00 0.00 85 1013.5
20260503184516 64 90 8.0 11.0 0.00 0.00 0.00 84 1013.7
20260503184016 64 68 10.0 14.0 0.00 0.00 0.00 84 1013.6
20260503183516 65 68 10.0 15.0 0.00 0.00 0.00 84 1013.7
20260503183016 65 90 10.0 15.0 0.00 0.00 0.00 84 1013.7
20260503182516 65 68 7.0 14.0 0.00 0.00 0.00 83 1013.5
20260503182016 65 90 10.0 15.0 0.00 0.00 0.00 83 1013.5
20260503181536 65 90 7.0 12.0 0.00 0.00 0.00 82 1013.5
20260503181015 65 45 8.0 15.0 0.00 0.00 0.00 82 1013.4
20260503180516 65 45 10.0 16.0 0.00 0.00 0.00 82 1013.3
20260503180036 65 45 10.0 17.0 0.00 0.00 0.00 81 1013.4
20260503175515 65 68 8.0 15.0 0.00 0.00 0.00 81 1013.3
20260503175015 65 68 11.0 16.0 0.00 0.00 0.00 82 1013.3
20260503174535 65 68 10.0 15.0 0.00 0.00 0.00 82 1013.4
20260503174015 65 68 9.0 16.0 0.00 0.00 0.00 81 1013.4
20260503173515 65 68 9.0 18.0 0.00 0.00 0.00 81 1013.2
20260503173015 65 68 7.0 12.0 0.00 0.00 0.00 81 1013.2
20260503172515 65 68 10.0 17.0 0.00 0.00 0.00 80 1013.1
20260503172015 65 68 10.0 16.0 0.00 0.00 0.00 81 1013.2
20260503171516 65 68 11.0 18.0 0.00 0.00 0.00 81 1013.0
20260503171016 66 68 11.0 17.0 0.00 0.00 0.00 81 1013.1
20260503170516 66 45 11.0 17.0 0.00 0.00 0.00 80 1013.1
20260503150515 69 68 13.0 17.0 0.00 0.00 0.00 69 1013.2
20260503131017 76 225 4.0 11.0 0.00 0.00 0.00 60 1014.2
20260503130517 75 248 2.0 7.0 0.00 0.00 0.00 60 1014.3
20260503110517 68 0.0 2.0 0.00 0.00 0.00 72 1015.7